Location: ???? ?????
(30.0052°N, 31.2891°E)
Time: 20:11:03
(UTC+00:00)

Cosmos 1331 Rocket - Pass Details

Date: 08 October 2022
Orbit: 748 x 778 km, 74.0° (Epoch: 06 December)

Event Time Altitude Azimuth Distance (km) Brightness Sun altitude
Exits shadow 02:09:27 15° 337° (NNW) 1,931 5.9 -23.0°
Drops below altitude 10° 02:10:39 10° 347° (NNW) 2,272 6.4 -22.8°
Sets 02:13:26 0° 1° (N) 3,203 7.3 -22.2°
